This is the latest recevied weather packets stored in our database for station/object KC3ULW-13. If no packets are shown the sender has not sent any weather packets the latest 10 day(s).
| Time | Temp. | Humidity | Pressure | Rain* | Wind** | Luminosity | Snow |
|---|---|---|---|---|---|---|---|
| 1777935965 | 21.11° C | 53% | 1009.5 hPa | 0 mm | - | 35 W/m² | - |
| 1777935664 | 21.11° C | 54% | 1009.4 hPa | 0 mm | - | 46 W/m² | - |
| 1777935361 | 21.67° C | 56% | 1009.7 hPa | 0 mm | - | 51 W/m² | - |
| 1777935058 | 21.67° C | 56% | 1009.9 hPa | 0 mm | - | 110 W/m² | - |
| 1777934754 | 21.67° C | 55% | 1010 hPa | 0 mm | - | 162 W/m² | - |
| 1777934452 | 22.22° C | 49% | 1010.1 hPa | 0 mm | - | 94 W/m² | - |
| 1777934149 | 22.22° C | 48% | 1009.6 hPa | 0 mm | - | 29 W/m² | - |
| 1777933844 | 22.22° C | 49% | 1009.7 hPa | 0 mm | - | 36 W/m² | - |
| 1777933541 | 22.22° C | 48% | 1009.4 hPa | 0 mm | - | 67 W/m² | - |
| 1777933239 | 22.22° C | 48% | 1009.6 hPa | 0 mm | - | 67 W/m² | - |
| 1777932936 | 22.22° C | 48% | 1009.7 hPa | 0 mm | - | 62 W/m² | - |
| 1777932632 | 22.22° C | 47% | 1009.6 hPa | 0 mm | - | 84 W/m² | - |
| 1777932329 | 22.22° C | 47% | 1009.6 hPa | 0 mm | - | 88 W/m² | - |
| 1777932026 | 22.22° C | 46% | 1009.7 hPa | 0 mm | - | 90 W/m² | - |
| 1777931722 | 22.22° C | 47% | 1009.6 hPa | 0 mm | - | 130 W/m² | - |
| 1777931420 | 22.78° C | 47% | 1009.6 hPa | 0 mm | - | 114 W/m² | - |
| 1777931116 | 22.78° C | 47% | 1009.7 hPa | 0 mm | - | 137 W/m² | - |
| 1777930812 | 22.78° C | 47% | 1009.6 hPa | 0 mm | - | 121 W/m² | - |
| 1777930509 | 23.33° C | 46% | 1009.6 hPa | 0 mm | - | 109 W/m² | - |
| 1777930206 | 23.33° C | 45% | 1009.5 hPa | 0 mm | - | 184 W/m² | - |
| 1777929902 | 23.89° C | 45% | 1009.8 hPa | 0 mm | - | 326 W/m² | - |
| 1777929600 | 23.89° C | 45% | 1009.6 hPa | 0 mm | - | 396 W/m² | - |
| 1777929296 | 23.33° C | 44% | 1009.5 hPa | 0 mm | - | 419 W/m² | - |
| 1777928994 | 23.33° C | 45% | 1009.5 hPa | 0 mm | - | 121 W/m² | - |
| 1777928690 | 23.89° C | 44% | 1009.4 hPa | 0 mm | - | 410 W/m² | - |
* Rain latest hour (hover to see other rain measurements)
** Current wind speed in m/s (hover to see current wind gust speed)